Location: Monrovia
(34.7865°N, 86.7139°W)
Time: 00:46:45
(UTC+00:00)

COSMOS 2455 - Pass Details

Date: 14 July 2020
Orbit: 898 x 911 km, 67.1° (Epoch: 12 August)

Event Time Altitude Azimuth Distance (km) Brightness Sun altitude
Rises 03:23:55 0° 345° (NNW) 3,547 7.1 -23.4°
Reaches altitude 10° 03:26:56 10° 359° (N) 2,602 5.9 -23.8°
Maximum altitude 03:31:48 25° 53° (NE) 1,764 4.3 -24.4°
Enters shadow 03:33:18 22° 75° (ENE) 1,861 4.3 -24.6°
